This is the latest recevied weather packets stored in our database for station/object K4WCH. If no packets are shown the sender has not sent any weather packets the latest 10 day(s).
| Time | Temp. | Humidity | Pressure | Rain* | Wind** | Luminosity | Snow |
|---|---|---|---|---|---|---|---|
| 1788356908 | 30.56° C | 78% | 1016.4 hPa | 0 mm | - | 184 W/m² | - |
| 1788356604 | 30° C | 80% | 1016.4 hPa | 0 mm | - | 546 W/m² | - |
| 1788356300 | 29.44° C | 83% | 1016.3 hPa | 0 mm | - | 520 W/m² | - |
| 1788355999 | 28.89° C | 82% | 1016.4 hPa | 0 mm | - | 447 W/m² | - |
| 1788355694 | 29.44° C | 82% | 1016.2 hPa | 0 mm | - | 339 W/m² | - |
| 1788355390 | 29.44° C | 82% | 1016.4 hPa | 0 mm | - | 339 W/m² | - |
| 1788355085 | 29.44° C | 82% | 1016.5 hPa | 0 mm | - | 339 W/m² | - |
| 1788354781 | 28.89° C | 85% | 1016.4 hPa | 0 mm | - | 281 W/m² | - |
| 1788354481 | 28.89° C | 86% | 1016.1 hPa | 0 mm | - | 267 W/m² | - |
| 1788354177 | 28.89° C | 85% | 1016.4 hPa | 0 mm | - | 292 W/m² | - |
| 1788353872 | 28.33° C | 87% | 1016.5 hPa | 0 mm | - | 239 W/m² | - |
| 1788353568 | 28.33° C | 88% | 1016.4 hPa | 0 mm | - | 217 W/m² | - |
| 1788353264 | 28.33° C | 89% | 1016.5 hPa | 0 mm | - | 197 W/m² | - |
| 1788352959 | 27.78° C | 89% | 1016.3 hPa | 0 mm | - | 193 W/m² | - |
| 1788352654 | 27.78° C | 90% | 1016.5 hPa | 0 mm | - | 172 W/m² | - |
| 1788352351 | 27.22° C | 91% | 1016.4 hPa | 0 mm | - | 154 W/m² | - |
| 1788352049 | 27.22° C | 92% | 1016.3 hPa | 0 mm | - | 139 W/m² | - |
| 1788351746 | 26.67° C | 94% | 1016.4 hPa | 0 mm | - | 119 W/m² | - |
| 1788351445 | 26.11° C | 97% | 1016.1 hPa | 0 mm | - | 111 W/m² | - |
| 1788351140 | 25.56° C | 98% | 1016.3 hPa | 0 mm | - | 103 W/m² | - |
| 1788350836 | 25.56° C | 98% | 1016.1 hPa | 0 mm | - | 51 W/m² | - |
| 1788350533 | 25.56° C | 98% | 1016.1 hPa | 0 mm | - | 47 W/m² | - |
| 1788350232 | 25° C | 99% | 1016.2 hPa | 0 mm | - | 44 W/m² | - |
| 1788349928 | 25° C | 99% | 1016.2 hPa | 0 mm | - | 38 W/m² | - |
| 1788349624 | 25° C | 99% | 1016.1 hPa | 0 mm | - | 43 W/m² | - |
* Rain latest hour (hover to see other rain measurements)
** Current wind speed in m/s (hover to see current wind gust speed)